Location: Newark
(51.0500°N, 12.4500°E)
Time: 18:04:14
(UTC+00:00)

X-37B - Pass Details

Date: 14 March 2021
Orbit: 380 x 394 km, 45.0° (Epoch: 07 April)

Event Time Altitude Azimuth Distance (km) Brightness Sun altitude
Rises 17:58:04 0° 219° (SW) 2,263 5.0 -7.8°
Reaches altitude 10° 18:00:43 10° 195° (SSW) 1,415 3.5 -8.2°
Maximum altitude 18:02:40 15° 157° (SSE) 1,149 2.7 -8.5°
Enters shadow 18:04:29 11° 122° (ESE) 1,389 2.8 -8.8°
